Regional Weather Roundup
Issued by NWS

Home | Current Version | Previous Version | Text Only | Print | Product List | Glossary On
Versions: 1 2 3 4 5 6 7 8 9 10 11 12 13 14 15 16 17 18 19 20 21 22 23 24 25 26 27 28 29 30 31 32 33 34 35 36 37 38 39 40 41 42 43 44 45 46 47 48 49 50
000
ASUS46 KSTO 170915
RWRCA

NORTHERN AND CENTRAL CA REGIONAL WEATHER ROUNDUP
NATIONAL WEATHER SERVICE SACRAMENTO CA
100 AM PST TUE JAN 17 2017

NOTE: FAIR INDICATES FEW OR NO CLOUDS BELOW 12,000 FEET WITH NO
SIGNIFICANT WEATHER AND/OR OBSTRUCTIONS TO VISIBILITY.

CAZ001-003-171000-
NORTHWEST AREA

CITY           SKY/WX    TMP DP  RH WIND       PRES   REMARKS
CRESCENT CITY  PTCLDY    47  45  93 S13       30.09F
UKIAH          CLEAR     37  35  92 CALM      30.12S
$$

CAZ006-505>513-171000-
BAY AREA

CITY           SKY/WX    TMP DP  RH WIND       PRES   REMARKS
SANTA ROSA     HAZE      38  38 100 CALM      30.11F VSB 1/4
SAN RAFAEL     N/A       39  MM  MM MISG
NAPA           CLEAR     39  36  89 N5        30.13S
CONCORD        CLEAR     38  33  82 CALM      30.14R HAZE
OAKLAND CITY   N/A       43  MM  MM MISG
OAKLAND        PTCLDY    44  39  82 CALM      30.12S
SAN FRAN CITY  N/A       45  MM  84 MISG
SAN FRAN ARPT  CLEAR     47  41  80 CALM      30.12S
LIVERMORE      CLEAR     34  32  92 E3        30.11F FOG
HAYWARD        CLEAR     42  35  76 NE7       30.11S
REDWOOD CITY   N/A       37  MM  92 MISG
MOFFETT ARPT   CLEAR     40  36  86 CALM      30.12S
SAN JOSE ARPT  CLEAR     41  37  86 E3        30.11F
$$
CAZ034-037-514>518-171000-
CENTRAL COAST

CITY           SKY/WX    TMP DP  RH WIND       PRES   REMARKS
WATSONVILLE    CLEAR     39  38  96 W3        30.10F
SALINAS        CLEAR     45  38  76 E14       30.09F
MONTEREY       CLEAR     40  38  93 E3        30.08F
SAN LUIS OBISP CLEAR     41  36  82 CALM      30.08S
SANTA MARIA    CLEAR     39  38  96 MISG      30.08S
$$
CAZ015-016-171000-
NORTHERN SACRAMENTO VALLEY

CITY           SKY/WX    TMP DP  RH WIND       PRES   REMARKS
REDDING        CLOUDY    39  38  96 CALM      30.14R
RED BLUFF      FOG       36  35  96 NW5       30.15F VSB 1/2 WCI  32
OROVILLE       CLEAR     37  34  89 E6        30.16S FOG     WCI  32
$$
CAZ016>018-171000-
SOUTHERN SACRAMENTO VALLEY

CITY           SKY/WX    TMP DP  RH WIND       PRES   REMARKS
AUBURN         CLEAR     34  34 100 CALM      30.12S
BEALE AFB      CLEAR     35  35 100 E5        30.13S WCI  31
LINCOLN        FAIR      32  32 100 E5        30.14S WCI  27
MARYSVILLE     CLEAR     37  34  89 CALM      30.16S
SAC INTL ARPT  CLEAR     34  34 100 E3        30.14F FOG
MATHER AIRPORT NOT AVBL
DOWNTOWN SAC   N/A       38  MM  MM MISG
SAC EXEC ARPT  CLEAR     36  36 100 CALM      30.15S FOG
VACAVILLE      CLEAR     34  34 100 CALM      30.15S FOG
TRAVIS AFB     CLEAR     34  33  96 NW7       30.12S FOG     WCI  28
$$
CAZ019>021-171000-
SAN JOAQUIN VALLEY

CITY           SKY/WX    TMP DP  RH WIND       PRES   REMARKS
STOCKTON       CLEAR     34  33  96 CALM      30.12S FOG
MODESTO        CLEAR     37  33  85 SE5       30.13S WCI  33
MERCED         CLEAR     35  33  92 CALM      30.13F FOG
LEMOORE        CLEAR     33  32  96 SW3       30.14S FOG
FRESNO         CLEAR     36  34  92 CALM      30.13F FOG
HANFORD        CLEAR     34  34 100 CALM      30.14F FOG
PORTERVILLE    CLEAR     34  32  92 SE6       30.13F FOG     WCI  29
BAKERSFIELD    CLEAR     38  33  82 CALM      30.12F
$$
CAZ011-012-071-171000-
NORTHERN MOUNTAINS

CITY           SKY/WX    TMP DP  RH WIND       PRES   REMARKS
YREKA          CLEAR     24  22  91 CALM      30.16S
MOUNT SHASTA   CLEAR     28  23  81 CALM      30.10F
ALTURAS        CLEAR     23  18  81 VRB3      30.14F
$$
CAZ011-012-071-171000-
SIERRA NEVADA MTNS

CITY           SKY/WX    TMP DP  RH WIND       PRES   REMARKS
BLUE CANYON    CLEAR     51   8  17 NE7       30.10S
TRUCKEE        FOG       16  14  93 CALM      30.21F VSB 1/4
TAHOE VLY ARPT PTCLDY    21  16  81 CALM      30.17F
MAMMOTH LAKES  FAIR      17   2  53 W6        30.19R WCI   8
$$




USA.gov is the U.S. government's official web portal to all federal, state and local government web resources and services.